Weather History for Laramie, WY

Change the Weather History Date:

Friday, November 25, 2011

  Actual Average Record
Temperature  
Mean Temperature 31 °F 25 °F  
Max Temperature 45 °F 36 °F 61 °F (1990)
Min Temperature 17 °F 14 °F -26 °F (1993)
Degree Days  
Heating Degree Days 34 40  
Month to date heating degree days 886 864  
Since 1 July heating degree days 1916 2107  
Cooling Degree Days 0 0  
Month to date cooling degree days 0 0  
Year to date cooling degree days 126 67  
Moisture  
Dew Point 20 °F    
Average Humidity 64    
Maximum Humidity 91    
Minimum Humidity 36    
Precipitation  
Precipitation T in 0.02 in 0.77 in (1983)
Month to date precipitation 0.25 0.47  
Year to date precipitation 10.20 10.53  
Sea Level Pressure  
Sea Level Pressure 29.89 in    
Wind  
Wind Speed 21 mph (WNW)    
Max Wind Speed 40 mph    
Max Gust Speed 49 mph    
Visibility 7 miles    
Events Fog , Snow    
T = Trace of Precipitation, MM = Missing Value Source: NWS Daily Summary

Daily Weather History Graph

Daily Weather History Graph

Search for Another Location

Airport:

Trip Planner

Search our weather history database for the weather conditions in past years. The results will help you decide how hot, cold, wet, or windy it might be!

Date:

Astronomy

Nov. 25, 2011 Rise Set
Actual Time 7:02 AM MST 4:36 PM MST
Civil Twilight 6:32 AM MST 5:06 PM MST
Nautical Twilight 5:58 AM MST 5:40 PM MST
Astronomical Twilight 5:24 AM MST 6:14 PM MST
Moon 7:33 AM MST (11/25) 5:06 PM MST (11/25)
Length of Visible Light 10h 34m
Length of Day
9h 34m
New Moon, 0% of the Moon is Illuminated
Nov 25
New Moon
Dec 2
First Quarter
Dec 10
Full
Dec 17
Last Quarter
Dec 24
New

Hourly Weather History & Observations

Time (MST) Temp. Windchill Dew Point Humidity Pressure Visibility Wind Dir Wind Speed Gust Speed Precip Events Conditions
12:53 AM 33.8 °F 26.4 °F 17.6 °F 52% 29.89 in 10.0 mi WSW 9.2 mph - N/A   Clear
1:53 AM 35.1 °F 27.9 °F 18.0 °F 50% 29.73 in 10.0 mi NNW 9.2 mph - N/A   Clear
2:53 AM 35.6 °F 29.9 °F 17.6 °F 48% 29.89 in 10.0 mi West 6.9 mph - N/A   Clear
3:53 AM 33.1 °F 22.2 °F 17.1 °F 52% 29.76 in 10.0 mi WSW 17.3 mph - N/A   Clear
4:53 AM 33.1 °F 21.9 °F 19.9 °F 59% 29.82 in 10.0 mi WSW 18.4 mph - N/A   Clear
5:53 AM 32.0 °F 22.1 °F 19.9 °F 61% 29.83 in 10.0 mi West 13.8 mph 21.9 mph N/A   Clear
6:53 AM 30.9 °F 18.7 °F 21.0 °F 67% 29.84 in 10.0 mi WSW 19.6 mph - N/A   Clear
7:53 AM 30.0 °F 19.5 °F 21.0 °F 69% 29.84 in 10.0 mi WSW 13.8 mph - N/A   Clear
8:53 AM 37.9 °F 26.6 °F 21.9 °F 53% 29.77 in 10.0 mi West 25.3 mph 31.1 mph N/A   Clear
9:53 AM 41.0 °F 29.8 °F 19.0 °F 41% 29.74 in 10.0 mi West 29.9 mph 41.4 mph N/A   Clear
10:53 AM 43.0 °F 32.5 °F 17.1 °F 35% 29.71 in 10.0 mi West 29.9 mph 40.3 mph N/A   Clear
11:53 AM 42.1 °F 30.3 °F 19.0 °F 40% 29.71 in 10.0 mi West 36.8 mph 44.9 mph N/A   Clear
12:53 PM 42.1 °F 30.4 °F 19.0 °F 40% 29.71 in 10.0 mi West 35.7 mph 43.7 mph N/A   Clear
1:53 PM 41.0 °F 29.7 °F 19.4 °F 42% 29.81 in 10.0 mi West 31.1 mph 36.8 mph N/A   Clear
2:53 PM 37.0 °F 26.7 °F 19.0 °F 48% 29.76 in 10.0 mi West 19.6 mph - 0.00 in   Scattered Clouds
3:34 PM 32.0 °F - 26.6 °F 80% 29.86 in 1.0 mi North - - 0.00 in Snow Light Snow
3:37 PM 30.2 °F - 26.6 °F 86% 29.85 in 0.2 mi North - - 0.00 in Fog , Snow Snow
3:44 PM 28.4 °F 14.4 °F 26.6 °F 93% 29.86 in 0.2 mi WNW 23.0 mph 38.0 mph 0.00 in Fog , Snow Heavy Snow
3:48 PM 28.4 °F 17.0 °F 26.6 °F 93% 29.84 in 0.2 mi West 15.0 mph 28.8 mph 0.00 in Fog , Snow Light Snow
3:53 PM 28.9 °F 18.6 °F 27.0 °F 92% 29.83 in 1.8 mi West 12.7 mph - 0.00 in Snow Light Snow
3:55 PM 28.4 °F 18.0 °F 26.6 °F 93% 29.83 in 4.0 mi West 12.7 mph - N/A Snow Light Snow
4:08 PM 28.4 °F 18.0 °F 26.6 °F 93% 29.83 in 10.0 mi WNW 12.7 mph - 0.00 in   Scattered Clouds
4:53 PM 28.0 °F 14.6 °F 23.0 °F 81% 29.85 in 10.0 mi WNW 20.7 mph 38.0 mph 0.00 in   Scattered Clouds
5:53 PM 27.0 °F 11.6 °F 19.9 °F 75% 29.87 in 10.0 mi WNW 26.5 mph 34.5 mph 0.00 in   Partly Cloudy
6:53 PM 27.0 °F 13.2 °F 16.0 °F 63% 29.93 in 10.0 mi WNW 20.7 mph - N/A   Clear
7:53 PM 26.1 °F 11.3 °F 15.1 °F 63% 29.95 in 10.0 mi West 23.0 mph 35.7 mph N/A   Clear
8:53 PM 25.0 °F 8.6 °F 16.0 °F 69% 29.98 in 10.0 mi WNW 27.6 mph 34.5 mph N/A   Mostly Cloudy
9:12 PM 21.2 °F 5.2 °F 19.4 °F 93% 30.02 in 2.0 mi North 21.9 mph 38.0 mph 0.00 in Snow Light Snow
9:15 PM 21.2 °F 4.2 °F 17.6 °F 86% 30.02 in 1.5 mi North 25.3 mph 31.1 mph 0.00 in Snow Light Snow
9:22 PM 19.4 °F 2.1 °F 17.6 °F 93% 30.03 in 1.8 mi North 24.2 mph 32.2 mph 0.00 in Snow Light Snow
9:53 PM 19.0 °F 2.0 °F 16.0 °F 88% 30.08 in 1.8 mi North 23.0 mph 35.7 mph 0.00 in Snow Light Snow
10:27 PM 19.4 °F 6.0 °F 15.8 °F 86% 30.10 in 2.5 mi NNW 13.8 mph 27.6 mph 0.00 in Snow Light Snow
10:42 PM 19.4 °F 5.0 °F 15.8 °F 86% 30.12 in 1.5 mi NNW 16.1 mph - 0.00 in Snow Light Snow
11:12 PM 19.4 °F 2.1 °F 15.8 °F 86% 30.14 in 2.0 mi NNW 24.2 mph 31.1 mph 0.00 in Snow Light Snow
11:41 PM 17.6 °F 0.5 °F 15.8 °F 93% 30.16 in 3.0 mi NNW 21.9 mph 29.9 mph 0.00 in Snow Light Snow
11:53 PM 18.0 °F -0.2 °F 14.0 °F 84% 30.20 in 3.0 mi NNW 25.3 mph 32.2 mph 0.00 in Snow Light Snow